Flag for Kazakhstan Weather past 2 weeks in Aqtobe, Kazakhstan

Now
10 °F

Clear.


Feels Like: 10 °F
Forecast: 7 / 30 °F
Wind: 1 mph from Southeast

Location: Aktjubinsk

Current Time: Mar 31, 2015 at 8:22:49 AM

Latest Report: Mar 31, 2015 at 8:00 AM


Visibility: 3 mi

Pressure: 30.54 "Hg

Humidity: 92%

Dew point: 9 °F

Location of AqtobeLocation

Historic Weather in Aqtobe — Graph

°F

Aqtobe temperature yesterday

Maximum temperature yesterday: 30 °F (at 4:30 PM)
Minimum temperature yesterday: 0 °F (at 6:30 AM)
Average temperature yesterday: 16 °F

Past Weeks' High & Low Weather Summary

 TemperatureHumidityPressure
High37 °F (Mar 23, 12:30 PM)100% (Mar 16, 7:30 AM)30.89 "Hg (Mar 16, 7:30 AM)
Low0 °F (Mar 30, 6:30 AM)43% (Mar 30, 4:30 PM)29.56 "Hg (Mar 22, 4:00 AM)
Average24 °F84%30.33 "Hg
* Reported Mar 16 7:00 AM — Mar 31 7:00 AM, Aqtobe, Weather by CustomWeather, © 2015

Note: Actual official high and low records may vary slightly from our data, if they occured in-between our weather recording intervals... More about our weather records

Advertising

Aqtobe weather history for previous 24 hours

 ConditionsComfort  
Time TempWeatherWind HumidityBarometerVisibility
7:00 AM
Tue, Mar 31
7 °FSunny.1 mph85%30.54 "Hg10 mi
6:30 AM7 °FClear.1 mph92%30.54 "Hg10 mi
6:00 AM9 °FClear.3 mph92%30.57 "Hg10 mi
5:30 AM7 °FClear.No wind92%30.57 "Hg10 mi
4:30 AM9 °FClear.1 mph92%30.57 "Hg10 mi
4:00 AM9 °FClear.No wind92%30.60 "Hg10 mi
3:30 AM10 °FClear.No wind85%30.60 "Hg10 mi
3:00 AM12 °FClear.3 mph85%30.60 "Hg10 mi
2:30 AM10 °FClear.No wind92%30.60 "Hg10 mi
2:00 AM10 °FClear.1 mph85%30.60 "Hg10 mi
1:30 AM10 °FClear.1 mph92%30.63 "Hg10 mi
1:00 AM10 °FClear.No wind92%30.63 "Hg10 mi
12:30 AM12 °FClear.1 mph92%30.63 "Hg10 mi
12:00 AM14 °FClear.3 mph85%30.63 "Hg10 mi
11:30 PM
Mon, Mar 30
16 °FClear.1 mph86%30.63 "Hg10 mi
11:00 PM18 °FClear.No wind79%30.63 "Hg10 mi
10:30 PM19 °FClear.3 mph79%30.63 "Hg10 mi
10:00 PM19 °FClear.3 mph79%30.63 "Hg10 mi
9:30 PM21 °FClear.3 mph74%30.63 "Hg10 mi
9:00 PM23 °FClear.3 mph68%30.63 "Hg10 mi
8:30 PM23 °FClear.6 mph68%30.63 "Hg10 mi
8:00 PM23 °FClear.3 mph68%30.63 "Hg10 mi
7:30 PM25 °FSunny.6 mph63%30.66 "Hg10 mi
7:00 PM27 °FSunny.3 mph59%30.66 "Hg10 mi
6:30 PM28 °FSunny.3 mph55%30.66 "Hg10 mi
6:00 PM28 °FSunny.3 mph59%30.66 "Hg10 mi
5:30 PM30 °FSunny.3 mph55%30.69 "Hg10 mi
5:00 PM30 °FSunny.1 mph47%30.69 "Hg10 mi
4:30 PM30 °FSunny.1 mph43%30.72 "Hg10 mi
4:00 PM28 °FSunny.3 mph47%30.72 "Hg10 mi
3:30 PM27 °FPassing clouds.3 mph54%30.72 "HgN/A
3:00 PM28 °FSunny.6 mph51%30.72 "Hg10 mi
2:30 PM27 °FPassing clouds.3 mph54%30.74 "HgN/A
2:00 PM27 °FPassing clouds.3 mph50%30.74 "HgN/A
1:30 PM25 °FSunny.1 mph54%30.74 "Hg10 mi
1:00 PM25 °FPassing clouds.3 mph59%30.74 "HgN/A
12:30 PM23 °FClear.1 mph58%30.77 "Hg4 mi
12:00 PM23 °FClear.3 mph54%30.77 "Hg3 mi
11:30 AM19 °FClear.3 mph63%30.77 "Hg2 mi
11:00 AM18 °FClear.1 mph68%30.77 "Hg3 mi
10:30 AM16 °FClear.1 mph67%30.77 "Hg2 mi
10:00 AM14 °FClear.3 mph67%30.77 "Hg3 mi
9:30 AM10 °FClear.3 mph79%30.77 "Hg3 mi
9:00 AM9 °FSunny.3 mph78%30.77 "Hg10 mi
8:30 AM7 °FSunny.6 mph78%30.80 "Hg10 mi
Weather by CustomWeather, © 2015

See weather overviewHow to use our weather pages